Location: Freistadt
(48.5112°N, 14.5013°E)
Time: 11:17:50
(UTC+01:00)

N. Korean satellite - Pass Details

Date: 01 December 2022
Orbit: 407 x 444 km, 97.3° (Epoch: 28 January)

Event Time Altitude Azimuth Distance (km) Brightness Sun altitude
Rises 06:24:52 0° 360° (N) 2,526 10.0 -10.8°
Reaches altitude 10° 06:27:17 10° 343° (NNW) 1,641 8.9 -10.4°
Maximum altitude 06:29:56 20° 295° (WNW) 1,134 7.8 -10.0°
Drops below altitude 10° 06:32:33 10° 246° (WSW) 1,618 8.8 -9.6°
Sets 06:34:55 0° 229° (SW) 2,480 9.9 -9.3°
